Theta_e
312 317 318 321 324 326 324 322 321 313 311 319 322 323 324 324 325 316 316 320 318 316 315 315 315 315 313 312 311 309 311 311 310 310 310 311 311 312
310 313 317 322 322 324 324 323 324 320 313 317 318 317 319 320 324 314 315 319 318 318 316 315 314 315 314 313 311 310 311 311 310 309 309 309 310 311
311 313 314 317 320 322 322 322 323 321 317 311 315 314 314 315 313 311 314 310 310 313 315 317 315 314 314 313 312 310 311 310 310 310 308 308 308 310
313 311 315 320 318 322 322 319 319 316 311 304 310 310 311 312 310 308 309 311 309 312 314 315 315 314 313 312 311 310 310 310 309 308 308 308 308 309
311 314 315 316 315 318 316 317 315 313 310 307 308 310 309 309 306 306 307 307 309 313 314 314 315 314 313 311 310 309 308 307 306 306 306 306 307 307
313 314 313 314 316 316 314 312 311 310 308 307 306 306 305 306 306 304 304 306 305 309 310 311 312 312 312 312 311 309 307 305 304 304 304 303 303 304
313 313 314 317 320 316 313 311 309 306 305 306 304 303 302 303 302 303 303 304 304 303 301 303 304 302 305 312 311 311 308 306 304 303 302 302 301 302
307 307 309 311 310 310 310 310 309 307 304 302 302 302 302 302 302 301 301 298 297 301 301 300 300 299 301 304 307 308 307 305 303 303 302 302 301 301
303 304 304 306 307 306 307 308 308 308 307 304 302 301 299 301 301 297 295 295 295 298 299 296 297 297 298 300 303 303 302 301 301 301 301 301 300 300
300 301 301 301 302 303 303 302 302 302 301 303 303 301 300 299 300 298 297 294 296 300 298 294 296 294 296 296 302 302 301 301 300 301 301 300 300 299
300 300 300 300 299 300 302 300 300 301 302 301 300 299 298 299 299 297 295 294 291 297 300 298 298 292 293 295 298 302 301 300 300 300 300 300 300 299
299 298 298 299 298 299 300 300 298 297 299 299 298 297 298 299 302 302 299 297 296 296 300 297 297 296 293 294 297 299 299 300 300 300 300 300 300 299
295 295 295 295 295 296 299 301 298 299 300 298 297 299 301 301 303 302 302 299 297 295 299 298 296 295 294 294 296 298 298 299 299 300 300 300 299 298
294 296 298 295 295 295 297 294 294 297 297 300 301 300 299 298 298 300 297 298 298 296 297 298 296 295 294 293 293 296 298 298 298 298 299 299 299 299
299 298 296 296 297 299 297 298 298 299 298 300 299 298 299 299 298 297 297 295 294 296 298 296 295 295 294 294 293 294 294 297 298 298 297 297 297 298
299 299 298 297 297 298 299 299 299 300 299 297 297 298 300 299 297 297 295 295 291 293 296 297 296 295 294 295 294 293 295 293 296 297 297 297 297 298
296 296 296 295 295 295 295 296 298 299 298 297 297 297 298 298 297 296 294 293 292 291 292 294 296 297 296 295 292 292 293 294 296 297 297 295 296 296
293 291 291 292 291 291 292 293 296 298 298 298 298 297 296 295 295 294 293 291 290 291 292 293 293 293 295 297 297 292 293 293 295 297 297 295 294 296
289 288 287 288 290 293 295 295 295 297 298 297 296 294 295 294 293 293 292 292 291 291 292 293 293 292 290 289 294 297 292 293 295 296 296 295 293 294
288 286 286 286 287 290 294 295 295 296 296 295 294 293 293 292 292 291 291 291 290 291 291 292 292 292 290 290 291 294 293 295 294 295 295 297 296 297
286 286 286 286 286 288 291 293 294 293 294 294 293 293 293 292 291 291 291 288 289 291 290 290 292 288 294 295 292 292 294 296 297 296 296 297 295 297
285 285 286 286 286 288 290 291 292 292 292 293 293 293 292 292 290 290 290 290 290 290 291 292 294 295 294 293 291 292 293 294 297 297 297 298 296 293
285 285 284 284 286 289 290 290 290 291 291 292 292 291 291 290 291 290 291 291 290 290 291 291 293 293 293 293 291 292 292 292 293 292 293 297 297 297
Wind_Speed
9 7 5 5 4 5 4 4 6 4 5 5 4 3 3 3 3 5 5 12 12 10 9 9 8 7 6 5 3 2 4 5 6 6 6 7 7 7
8 10 8 6 5 4 5 5 5 5 4 2 2 2 2 4 7 5 5 8 6 8 9 9 10 10 10 9 6 6 7 8 8 7 6 7 7 8
10 9 8 7 6 4 4 4 6 6 6 0 2 2 3 6 5 4 5 4 3 4 7 9 11 12 12 11 9 8 9 10 9 7 6 7 7 9
10 8 11 6 7 7 5 6 5 5 4 4 2 2 3 4 5 5 3 2 1 4 8 7 7 9 10 11 9 9 9 9 8 7 7 6 7 9
9 8 7 5 7 5 5 4 3 3 3 4 4 2 3 3 4 4 3 2 1 5 3 4 4 6 10 10 10 11 10 9 8 7 6 5 6 8
7 7 9 10 10 7 4 6 5 5 3 6 5 4 3 2 3 3 3 3 3 4 5 6 4 3 8 9 11 12 11 10 9 7 5 5 7 9
6 5 6 10 11 9 7 7 8 4 6 7 5 5 5 2 3 2 2 2 0 2 2 3 2 3 4 2 6 10 10 9 7 5 6 7 8 9
4 4 6 9 12 15 15 12 7 7 8 4 5 8 4 3 2 2 2 1 1 2 1 2 2 2 2 3 4 3 7 7 5 6 8 9 10 10
5 5 7 7 11 13 18 17 15 13 9 6 10 5 4 4 4 3 2 2 1 1 2 1 2 2 1 1 5 7 5 4 5 6 9 10 10 10
10 9 9 10 9 11 12 13 12 11 9 7 8 6 5 5 4 4 3 3 1 2 2 2 1 1 1 2 5 5 1 5 6 8 9 10 10 11
11 11 10 11 13 12 13 13 11 9 11 14 13 13 11 9 6 4 2 3 1 1 3 1 1 2 1 2 4 7 5 5 5 8 8 9 10 10
10 10 18 11 13 11 10 9 10 5 7 6 5 6 5 4 7 4 2 2 1 1 2 3 2 3 3 1 0 1 2 5 8 8 8 8 7 4
8 7 6 12 12 12 10 7 5 4 6 5 4 2 3 4 3 3 2 2 1 1 3 1 1 1 2 3 3 2 2 3 3 4 7 5 5 4
6 6 10 18 14 11 7 8 8 6 4 4 4 4 4 4 4 4 5 5 5 4 3 4 2 1 1 1 2 2 3 3 2 3 2 3 4 3
9 12 16 15 15 15 15 13 9 5 4 6 4 3 2 2 2 3 4 4 4 4 4 4 2 1 0 1 2 2 5 2 2 2 2 2 2 2
12 11 10 13 16 11 10 9 7 7 5 4 3 1 1 2 3 2 3 3 3 3 5 5 4 1 1 1 2 3 2 2 3 2 2 1 2 2
10 10 10 9 9 8 7 7 7 6 6 3 3 3 3 3 4 4 4 3 3 2 3 3 4 2 2 2 2 4 3 2 3 2 1 2 2 3
10 8 8 7 7 6 6 6 7 7 5 4 5 4 4 5 4 5 4 3 2 2 2 2 2 1 1 3 12 6 2 2 3 3 3 2 3 5
8 7 6 6 6 6 6 5 5 5 5 5 5 5 5 4 4 3 3 2 2 2 2 2 2 2 2 3 1 15 2 2 3 4 4 4 3 6
7 7 6 6 5 5 6 6 6 5 5 5 5 5 5 4 3 3 3 2 2 2 3 2 3 3 2 2 2 3 13 2 3 2 2 2 3 2
6 6 5 5 5 5 5 5 5 5 5 5 5 4 3 3 3 2 3 4 3 3 3 3 3 3 1 1 2 4 7 17 9 3 2 5 4 3
6 6 6 6 6 5 5 5 5 6 6 5 5 4 4 3 3 3 3 3 3 3 3 3 4 3 4 3 5 5 4 5 13 22 18 7 2 3
7 6 5 4 5 6 7 7 6 6 6 5 4 4 4 3 4 3 3 3 3 3 3 3 3 3 4 5 5 7 10 9 7 11 10 19 24 21
Wind_Direction
264 258 245 247 229 230 216 190 201 233 230 207 205 146 131 126 138 118 133 145 141 142 145 143 150 153 163 174 188 221 241 245 246 259 264 271 285 301
251 252 250 242 238 222 220 212 209 221 241 143 146 115 115 117 145 123 134 129 129 146 168 181 181 185 183 184 191 210 227 235 232 235 250 270 289 294
236 232 249 246 251 235 214 214 214 198 225 110 100 125 107 137 115 131 132 127 134 183 217 220 212 198 189 183 186 206 219 229 234 238 253 271 278 281
239 236 242 234 233 236 225 222 216 189 150 152 118 118 108 125 112 113 93 88 228 238 249 243 235 211 200 196 181 197 212 224 232 235 247 257 267 280
247 256 262 251 258 245 216 213 185 168 185 149 126 111 103 130 121 88 83 61 19 13 59 36 268 222 207 188 193 205 209 218 223 220 231 258 275 283
234 240 247 243 242 230 184 158 137 128 128 112 96 95 84 91 103 124 95 56 18 4 14 24 357 277 227 206 205 206 207 211 215 211 226 250 264 272
225 241 252 251 234 175 157 149 136 125 125 128 125 129 125 80 98 125 104 86 345 44 14 15 72 47 25 146 202 216 203 202 204 213 237 252 260 269
118 70 59 78 92 91 92 85 88 136 137 121 123 127 92 108 115 103 92 92 156 44 49 33 51 43 39 55 78 123 162 163 192 225 248 256 265 267
73 85 84 70 82 90 83 84 77 71 65 115 128 105 113 151 129 105 121 124 189 318 117 162 3 350 356 98 133 122 133 180 219 251 260 259 258 258
57 52 73 70 62 88 90 79 68 60 57 70 81 97 104 123 118 129 147 132 1 16 118 181 195 264 293 231 185 153 168 254 254 279 274 273 274 268
61 52 54 69 62 69 87 90 83 71 57 70 82 82 82 78 100 100 75 110 18 249 16 55 105 287 266 238 222 236 287 307 283 302 294 290 284 273
56 48 42 61 73 73 86 94 90 76 95 85 67 60 79 89 79 81 162 133 152 106 4 24 9 1 331 196 234 233 306 322 319 307 298 286 281 266
49 37 29 52 56 55 63 68 77 100 78 84 94 96 81 68 59 40 38 66 131 98 2 50 74 43 32 321 337 344 340 312 286 289 292 294 299 217
41 46 62 64 62 64 66 83 73 81 90 87 85 72 74 59 42 50 68 71 62 89 22 32 71 74 2 297 290 320 302 306 309 272 296 330 340 294
57 58 54 54 62 61 62 62 53 58 72 79 75 73 60 79 65 52 57 65 73 48 44 42 40 22 174 291 289 305 322 306 294 306 4 9 319 314
35 46 50 60 57 52 52 45 53 53 60 66 55 66 104 48 46 2 33 17 40 1 16 23 6 283 175 28 306 314 290 302 326 336 8 356 340 343
57 46 41 40 42 37 40 35 39 38 41 23 36 40 41 31 54 30 36 32 48 3 336 332 356 110 92 54 356 349 331 335 331 308 30 350 359 350
54 44 40 33 34 25 31 30 31 29 19 27 31 30 32 35 34 32 27 36 16 348 339 324 339 164 205 89 58 1 347 339 321 8 26 2 13 359
47 35 28 16 17 29 34 33 21 12 10 28 27 20 21 27 28 30 14 4 354 342 335 329 1 29 50 23 327 34 343 349 343 49 38 47 64 24
36 31 23 12 3 8 14 19 17 15 22 20 27 22 18 11 11 15 8 3 355 353 0 1 19 21 36 16 357 13 16 68 27 31 24 32 77 107
20 23 12 8 1 360 359 6 12 9 9 9 8 5 358 351 359 355 5 25 21 5 15 10 333 300 299 310 57 42 35 45 55 38 15 67 52 49
17 18 7 4 360 356 355 1 6 9 4 2 358 356 359 0 9 7 15 17 18 11 1 355 6 36 46 41 53 63 53 42 53 55 46 67 133 95
8 3 351 349 351 2 7 4 1 1 359 348 354 348 353 3 5 2 358 9 30 22 18 23 28 37 50 44 58 74 69 59 65 62 49 63 76 80